COSMOS 1823 DEB, 26601

Orbit data source: Space-Track

COSMOS 1823 DEB, 26601 is space debris in LEO originally from a launch on Fri, 20 Feb 1987 UTC launched from the Plesetsk Missile And Space Complex (PKMTR). Debris objects in space refer to the collection of defunct objects orbiting the Earth. Examples of debris include non-operational satellites, rocket bodies, and fragments generated from explosions, collisions, or faulty payload assembly.

Loading next visibility...
Identifier
26601, 1987-020DT
Orbit
LEO
Country
Flag of CISCIS
Related business
Manufacturer
Unknown
Mission
Spacecraft
Bus & Motor
Unknown
Mass
Unknown
Launch date (UTC)
1987-02-20 (39 years ago)
Launch vehicle
Unknown
Launch site
Plesetsk Missile And Space Complex (PKMTR)
Object type
Payload
Rocket body
Debris
Shape & HBR
Unknown shape, 0.2 m
Radar Cross Section
Medium (>0.1 m² and <1 m²)

Expand to show TLE details & history
Last TLE update: 3 days ago

TLE from 3 days ago
0 COSMOS 1823 DEB
1 26601U 87020DT  26171.11037800 -.00000009  00000-0  63910-4 0  9992
2 26601  73.6033  40.5032 0028858 243.4669 273.0348 12.41293341280465
Epoch: 2026-06-20T02:38Z
TLE epoch observation values (Epoch: 2026-06-20T02:38:56.659Z)
Latitude
22.8259°
Longitude
-94.64193°
Altitude
1,502.228 km
Speed
7.116 km/s
True Right ascension
14h 13m 41s
True Declination
22° 42' 53"
Sunlit
Object was in daylight at epoch
Visualization orbit readout
Latitude
Unknown
Longitude
Unknown
Altitude
Unknown
Speed
Unknown
Apparent Right ascension
Unknown
Apparent Declination
Unknown
Sunlit
N/A
Visualization observer readout
Local Sidereal Time
05:02:04
Azimuth
Unknown
Elevation
Unknown
Doppler factor
Unknown
Orbital elements
Apogee altitude
1,521.736 km
Perigee altitude
1,476.272 km
Semi-major axis
7,877.141 km
Eccentricity
0.00289
Inclination
73.6033°
RAAN
40.5032°
Arg. of periapsis
243.4669°
True anomaly
272.70451°
Mean anomaly
273.0348°
Eccentric anomaly
272.86966°
Mean motion
3.10449 °/min
Orbital period
115.96 mins
BSTAR
0.00006391
Loading maneuver chart data...
Computing Atmospheric mass density...
Loading historical data...
Loading historical data...
Loading historical data...
Loading historical data...
Loading historical data...
Loading historical data...
Loading historical data...

Documentation

Showing up to 5 results
|